Temp
-8 -8 -8 -8 -7 -7 -8 -8 -8 -8 -8 -8 -8 -7 -7 -8 -8 -8 -8 -8 -8 -8 -8 -8 -8 -8 -8 -8 -8 -8 -8 -8 -9 -9 -9 -9 -9 -9 -9 -9 -9 -9
-8 -8 -8 -8 -8 -8 -8 -8 -8 -8 -8 -8 -8 -8 -8 -8 -8 -8 -8 -8 -8 -8 -8 -8 -8 -8 -8 -8 -8 -8 -8 -9 -9 -9 -9 -9 -9 -9 -9 -9 -9 -9
-8 -8 -8 -8 -8 -8 -8 -8 -8 -8 -8 -8 -8 -8 -8 -8 -8 -8 -8 -8 -8 -8 -8 -8 -8 -8 -8 -8 -8 -9 -9 -9 -9 -9 -9 -9 -9 -9 -9 -9 -9 -9
-8 -8 -8 -8 -8 -8 -8 -8 -8 -8 -8 -8 -8 -8 -8 -8 -8 -8 -8 -8 -8 -8 -8 -8 -8 -8 -8 -8 -9 -9 -9 -9 -9 -9 -9 -9 -9 -9 -9 -9 -9 -9
-7 -8 -8 -8 -8 -8 -8 -9 -9 -8 -8 -8 -8 -8 -8 -8 -8 -8 -8 -8 -8 -8 -8 -8 -8 -8 -8 -9 -9 -9 -9 -9 -9 -9 -9 -9 -9 -9 -10 -10 -9 -9
-7 -8 -8 -8 -8 -8 -8 -9 -9 -9 -8 -8 -8 -8 -8 -9 -9 -8 -8 -8 -8 -8 -8 -8 -8 -9 -9 -9 -9 -9 -9 -9 -9 -9 -10 -10 -10 -10 -10 -10 -10 -10
-7 -7 -8 -8 -8 -8 -8 -9 -9 -9 -8 -8 -8 -8 -9 -9 -9 -8 -8 -8 -8 -8 -8 -8 -9 -9 -9 -9 -9 -9 -9 -9 -9 -9 -10 -10 -10 -10 -10 -10 -10 -10
-8 -8 -8 -8 -8 -8 -9 -9 -9 -9 -9 -8 -8 -8 -9 -9 -9 -9 -9 -9 -9 -9 -9 -9 -9 -9 -9 -9 -9 -9 -9 -9 -9 -10 -10 -10 -10 -10 -10 -10 -10 -10
-8 -8 -8 -8 -9 -9 -9 -9 -9 -9 -9 -8 -8 -8 -9 -9 -9 -9 -9 -9 -9 -9 -9 -9 -9 -9 -9 -9 -9 -9 -10 -10 -10 -10 -10 -10 -10 -10 -10 -10 -10 -10
-8 -8 -8 -8 -9 -9 -9 -9 -9 -9 -9 -9 -8 -9 -9 -9 -9 -9 -9 -9 -9 -9 -9 -9 -9 -9 -9 -9 -9 -10 -10 -10 -10 -10 -10 -10 -10 -10 -10 -10 -10 -10
-8 -8 -8 -9 -9 -9 -9 -9 -9 -9 -9 -9 -9 -9 -9 -9 -9 -9 -9 -9 -9 -9 -9 -9 -9 -9 -9 -9 -10 -10 -10 -10 -10 -10 -10 -10 -10 -10 -10 -10 -10 -10
-8 -8 -8 -9 -9 -9 -9 -9 -9 -9 -9 -9 -9 -9 -9 -9 -9 -9 -9 -9 -9 -9 -9 -9 -9 -9 -10 -10 -10 -10 -10 -10 -10 -10 -10 -10 -10 -10 -10 -10 -10 -10
-8 -8 -8 -9 -9 -9 -9 -9 -9 -9 -9 -9 -9 -9 -9 -9 -9 -9 -9 -9 -9 -9 -9 -9 -9 -10 -10 -10 -10 -10 -10 -10 -10 -10 -10 -11 -10 -10 -10 -10 -10 -10
-8 -8 -8 -9 -9 -9 -9 -9 -9 -9 -9 -9 -9 -9 -9 -9 -9 -9 -9 -9 -9 -9 -9 -9 -10 -10 -10 -10 -10 -10 -10 -10 -10 -11 -11 -11 -11 -11 -11 -11 -10 -11
-8 -8 -9 -9 -9 -9 -9 -9 -9 -9 -9 -9 -9 -9 -9 -9 -10 -10 -10 -9 -9 -9 -10 -10 -10 -10 -10 -10 -10 -11 -11 -11 -11 -11 -11 -11 -11 -11 -11 -11 -11 -11
-8 -9 -9 -9 -9 -9 -9 -9 -9 -9 -9 -9 -9 -9 -10 -10 -10 -10 -10 -10 -10 -10 -10 -10 -10 -10 -11 -11 -11 -11 -11 -11 -11 -11 -11 -11 -11 -11 -11 -11 -11 -11
-9 -9 -9 -9 -9 -9 -9 -9 -9 -9 -9 -9 -9 -10 -10 -10 -10 -10 -10 -10 -10 -10 -11 -10 -11 -11 -11 -11 -11 -11 -11 -11 -11 -12 -12 -11 -12 -12 -11 -11 -11 -11
-9 -9 -9 -9 -9 -9 -9 -9 -9 -9 -9 -9 -9 -10 -10 -10 -10 -10 -10 -11 -11 -11 -11 -11 -11 -11 -11 -11 -11 -11 -11 -12 -12 -12 -12 -12 -12 -12 -12 -11 -12 -12
-9 -9 -9 -9 -9 -9 -9 -9 -9 -9 -9 -9 -9 -10 -10 -10 -10 -10 -10 -11 -11 -11 -11 -12 -12 -12 -12 -12 -12 -12 -12 -12 -12 -12 -12 -12 -12 -12 -12 -12 -12 -12
-9 -9 -9 -9 -9 -9 -9 -9 -9 -9 -9 -9 -10 -10 -10 -10 -10 -10 -11 -11 -11 -11 -12 -12 -12 -12 -12 -12 -12 -12 -12 -12 -12 -12 -12 -12 -12 -12 -12 -12 -12 -12
-9 -9 -9 -10 -10 -9 -9 -9 -9 -10 -10 -10 -10 -10 -10 -10 -11 -11 -11 -11 -11 -11 -12 -12 -12 -12 -13 -12 -12 -12 -12 -12 -12 -12 -12 -12 -12 -12 -12 -12 -12 -12
-9 -9 -10 -10 -10 -9 -9 -9 -10 -10 -10 -10 -10 -10 -11 -11 -11 -11 -11 -11 -11 -12 -12 -12 -12 -12 -13 -13 -12 -12 -12 -12 -12 -12 -12 -12 -12 -12 -13 -13 -13 -13
-10 -10 -10 -10 -10 -9 -9 -10 -10 -10 -10 -10 -11 -11 -11 -11 -11 -11 -11 -11 -11 -12 -12 -12 -12 -12 -13 -13 -13 -12 -12 -12 -12 -13 -13 -13 -13 -13 -13 -13 -13 -13
-10 -10 -10 -10 -10 -9 -10 -10 -10 -10 -11 -11 -11 -11 -11 -11 -11 -11 -11 -11 -11 -12 -12 -12 -12 -12 -13 -13 -13 -13 -13 -13 -13 -13 -13 -13 -13 -13 -13 -13 -13 -13
-10 -10 -10 -10 -10 -10 -10 -10 -10 -11 -11 -11 -11 -12 -12 -12 -12 -12 -12 -12 -12 -12 -12 -12 -13 -13 -13 -13 -13 -14 -14 -13 -13 -13 -13 -13 -13 -13 -13 -13 -14 -14
-10 -10 -10 -10 -10 -10 -10 -10 -10 -11 -11 -11 -12 -12 -11 -12 -12 -12 -12 -12 -12 -12 -12 -12 -13 -13 -13 -13 -14 -14 -14 -14 -13 -13 -13 -13 -13 -13 -13 -14 -14 -14
Height
5905 5904 5904 5902 5901 5899 5898 5896 5895 5894 5892 5891 5889 5887 5886 5884 5883 5881 5880 5878 5876 5875 5873 5871 5869 5867 5865 5862 5860 5858 5855 5853 5851 5849 5847 5844 5842 5839 5837 5834 5832 5830
5902 5901 5901 5899 5898 5896 5895 5894 5892 5891 5889 5888 5886 5884 5882 5881 5879 5878 5876 5874 5873 5871 5870 5868 5866 5864 5861 5859 5857 5854 5852 5850 5847 5845 5843 5840 5838 5835 5833 5830 5827 5825
5899 5898 5897 5896 5895 5894 5892 5891 5890 5888 5886 5885 5883 5881 5879 5877 5876 5874 5872 5871 5869 5868 5866 5865 5863 5860 5858 5855 5853 5851 5849 5846 5843 5841 5839 5836 5834 5831 5829 5826 5823 5820
5896 5895 5894 5893 5892 5891 5890 5889 5887 5886 5884 5882 5880 5878 5876 5874 5872 5871 5869 5868 5866 5865 5863 5861 5859 5857 5854 5852 5849 5847 5845 5842 5839 5837 5834 5832 5829 5827 5824 5821 5818 5816
5893 5892 5891 5890 5889 5889 5888 5887 5885 5883 5881 5879 5877 5875 5873 5871 5869 5867 5866 5865 5863 5862 5860 5858 5856 5853 5850 5847 5845 5843 5841 5838 5835 5833 5830 5827 5825 5822 5820 5817 5814 5811
5890 5889 5888 5887 5886 5886 5885 5884 5882 5880 5878 5876 5873 5871 5869 5867 5866 5864 5862 5861 5860 5858 5856 5854 5852 5849 5847 5844 5842 5839 5837 5834 5831 5829 5826 5823 5821 5818 5816 5812 5809 5806
5888 5887 5885 5884 5883 5882 5881 5880 5878 5876 5874 5872 5870 5868 5865 5864 5862 5860 5859 5857 5856 5854 5852 5850 5848 5846 5844 5841 5838 5835 5832 5830 5827 5824 5822 5819 5817 5814 5811 5808 5805 5802
5885 5884 5882 5880 5879 5879 5878 5877 5875 5872 5871 5868 5866 5864 5862 5860 5859 5857 5855 5853 5851 5850 5848 5846 5844 5842 5839 5836 5833 5830 5828 5826 5823 5820 5818 5815 5813 5810 5807 5804 5801 5798
5882 5880 5878 5877 5876 5876 5874 5873 5871 5869 5867 5864 5862 5861 5859 5857 5855 5853 5851 5849 5848 5846 5844 5842 5840 5837 5834 5832 5829 5827 5824 5822 5819 5816 5814 5811 5808 5806 5803 5800 5797 5794
5877 5876 5875 5874 5873 5872 5871 5869 5867 5865 5863 5861 5859 5857 5855 5854 5852 5850 5848 5846 5844 5842 5840 5838 5835 5833 5830 5828 5825 5823 5820 5817 5814 5812 5809 5807 5804 5801 5799 5796 5793 5790
5873 5873 5872 5871 5870 5868 5867 5865 5863 5861 5859 5857 5855 5854 5852 5850 5848 5846 5844 5842 5840 5838 5836 5833 5831 5829 5826 5823 5820 5818 5815 5813 5810 5807 5804 5802 5800 5797 5794 5791 5788 5786
5870 5870 5869 5867 5866 5864 5863 5861 5859 5857 5855 5853 5852 5850 5848 5846 5844 5842 5840 5838 5836 5834 5832 5829 5827 5824 5821 5818 5816 5813 5811 5808 5806 5803 5800 5797 5795 5792 5790 5787 5784 5782
5867 5866 5865 5863 5862 5860 5859 5857 5856 5854 5851 5850 5848 5846 5843 5841 5839 5837 5835 5833 5832 5830 5828 5825 5822 5820 5817 5814 5812 5809 5806 5804 5801 5798 5795 5792 5789 5787 5785 5782 5780 5778
5862 5861 5861 5859 5858 5857 5855 5853 5851 5849 5847 5845 5843 5841 5838 5836 5834 5832 5831 5829 5827 5825 5823 5820 5818 5815 5813 5810 5807 5805 5802 5800 5797 5794 5791 5787 5784 5782 5780 5778 5776 5773
5858 5857 5857 5856 5855 5853 5851 5849 5847 5845 5843 5841 5838 5835 5833 5831 5829 5828 5826 5824 5822 5820 5817 5815 5813 5810 5808 5805 5803 5800 5798 5795 5793 5790 5787 5784 5781 5778 5776 5773 5771 5769
5854 5853 5853 5852 5850 5849 5847 5845 5843 5841 5839 5836 5833 5831 5829 5827 5825 5824 5822 5819 5817 5814 5813 5811 5808 5806 5803 5801 5798 5796 5794 5791 5789 5786 5784 5781 5778 5775 5772 5769 5767 5764
5850 5850 5849 5847 5846 5844 5843 5841 5839 5837 5834 5831 5829 5827 5825 5824 5822 5819 5817 5814 5811 5809 5807 5805 5803 5801 5798 5796 5793 5791 5789 5787 5784 5782 5779 5777 5774 5771 5769 5766 5763 5760
5846 5846 5845 5843 5842 5840 5839 5837 5834 5832 5829 5826 5824 5822 5821 5820 5819 5815 5812 5810 5807 5803 5801 5800 5798 5796 5793 5790 5789 5787 5785 5783 5780 5778 5775 5773 5770 5768 5766 5763 5760 5757
5842 5841 5840 5839 5837 5836 5834 5832 5829 5826 5823 5821 5818 5817 5817 5816 5814 5811 5808 5805 5802 5798 5795 5793 5792 5790 5788 5786 5784 5783 5781 5778 5776 5773 5771 5769 5767 5764 5762 5759 5757 5754
5838 5838 5836 5834 5832 5830 5829 5826 5823 5821 5818 5815 5813 5813 5811 5810 5807 5805 5802 5800 5797 5793 5790 5788 5786 5785 5783 5781 5780 5778 5776 5774 5772 5769 5767 5765 5762 5760 5758 5755 5753 5751
5834 5833 5831 5829 5827 5825 5823 5820 5818 5816 5813 5811 5809 5808 5806 5803 5801 5799 5797 5795 5792 5788 5786 5783 5780 5779 5777 5776 5775 5773 5771 5769 5768 5765 5763 5761 5758 5756 5753 5751 5749 5747
5830 5828 5825 5823 5821 5819 5817 5815 5813 5811 5808 5806 5804 5802 5800 5799 5797 5795 5793 5790 5786 5783 5781 5778 5775 5773 5771 5770 5769 5769 5767 5765 5763 5761 5759 5756 5754 5751 5749 5747 5745 5742
5824 5821 5819 5817 5815 5814 5812 5810 5808 5806 5804 5801 5799 5797 5795 5794 5792 5790 5787 5783 5780 5778 5777 5775 5771 5768 5766 5765 5765 5765 5763 5761 5759 5756 5754 5751 5749 5746 5744 5742 5740 5738
5816 5814 5813 5811 5810 5809 5808 5805 5803 5801 5799 5797 5794 5793 5791 5789 5787 5784 5781 5777 5774 5772 5773 5772 5768 5765 5763 5761 5761 5760 5758 5756 5754 5751 5749 5746 5744 5741 5739 5737 5735 5733
5810 5809 5808 5807 5806 5805 5803 5800 5798 5797 5796 5794 5791 5789 5788 5786 5783 5780 5777 5775 5772 5769 5768 5767 5764 5761 5759 5757 5755 5754 5752 5751 5748 5746 5744 5742 5739 5736 5734 5732 5729 5727
5806 5805 5804 5803 5802 5800 5798 5796 5794 5793 5791 5789 5787 5786 5784 5782 5780 5777 5774 5773 5770 5766 5763 5762 5758 5756 5754 5752 5750 5748 5747 5745 5743 5741 5739 5737 5734 5731 5728 5726 5724 5722
Wind_Speed
20 22 24 25 26 26 26 26 27 27 29 30 31 32 31 30 29 28 28 28 29 30 31 32 32 33 34 35 36 37 37 38 38 38 39 39 40 41 42 43 43 44
21 22 23 25 26 27 27 27 27 27 28 30 31 31 31 31 30 29 28 29 30 31 32 32 33 34 35 36 37 37 38 38 38 38 38 39 40 41 42 43 44 45
21 22 23 24 25 27 27 27 26 27 28 29 30 30 30 30 30 29 29 29 31 32 32 33 33 35 36 37 37 38 38 38 38 39 39 39 40 41 42 43 44 45
21 22 23 24 25 26 26 26 26 27 27 28 29 29 29 29 29 29 29 30 32 33 33 33 34 36 37 38 38 38 38 39 39 39 40 40 41 41 42 43 44 45
23 23 24 24 25 25 25 25 26 27 27 28 29 29 29 29 29 30 31 31 32 33 33 34 35 37 38 39 39 39 39 39 39 39 40 40 41 41 42 43 44 45
24 24 24 24 25 26 26 26 27 28 28 29 29 29 29 29 30 31 32 33 33 33 34 34 36 37 38 38 39 38 38 38 39 39 40 40 41 41 42 43 44 45
25 25 25 25 25 25 26 27 27 28 29 29 29 29 29 30 31 32 33 33 34 34 35 35 36 36 37 38 38 38 39 39 40 40 40 41 41 42 42 43 44 45
26 26 26 26 25 25 27 28 28 28 29 30 29 29 30 31 32 32 33 34 34 34 35 36 37 37 38 38 39 40 40 40 40 41 41 41 42 42 42 43 44 45
27 27 27 27 25 25 27 29 30 30 30 30 30 30 30 31 32 33 33 34 34 34 35 36 38 39 40 40 40 40 41 40 40 41 42 42 42 42 42 43 44 44
29 28 27 26 25 25 28 30 31 31 31 31 31 31 31 31 32 33 34 34 34 35 36 37 38 39 40 41 41 41 41 41 41 42 42 43 42 42 42 43 44 44
29 28 27 26 25 26 28 30 31 31 31 31 31 31 32 32 33 34 34 34 35 35 37 38 39 39 40 41 42 42 41 41 41 42 42 42 42 42 42 42 43 43
29 28 28 27 26 27 29 31 31 31 31 32 32 33 33 34 34 34 34 35 35 36 38 39 39 40 41 41 42 42 41 41 41 41 41 41 41 41 41 41 41 42
27 27 27 27 27 28 31 32 32 33 33 33 34 34 34 35 35 35 35 35 36 38 39 40 41 41 41 41 41 41 41 41 41 41 40 40 40 40 39 39 40 41
26 27 26 26 27 30 32 32 32 33 34 35 34 34 35 35 35 35 35 36 38 40 41 41 41 42 41 40 40 40 41 41 40 40 40 39 39 38 38 38 39 40
26 26 26 27 28 30 31 31 32 34 35 35 35 35 35 36 35 35 36 38 40 41 42 41 42 42 41 41 41 40 40 39 40 40 39 39 38 37 37 37 37 38
26 27 27 29 29 30 31 32 33 35 35 35 35 36 36 36 36 36 38 40 42 43 42 42 42 42 42 41 40 40 39 39 40 40 40 39 38 36 36 36 37 38
27 28 28 29 30 31 32 33 35 36 36 36 36 37 36 36 36 38 40 42 44 45 45 44 44 43 43 42 40 39 39 39 40 40 40 39 37 35 34 35 37 37
29 29 28 29 30 31 33 34 36 37 37 38 38 38 37 36 37 40 43 44 46 49 49 48 47 45 44 43 40 38 38 39 40 39 38 38 36 34 33 34 36 37
29 29 29 30 31 33 34 35 37 38 39 40 41 40 39 38 40 44 46 48 50 52 52 52 51 48 46 42 39 37 37 38 39 37 36 37 36 34 33 34 36 38
28 29 30 31 33 34 35 36 37 38 39 41 42 41 41 42 44 45 46 46 47 46 46 48 49 49 45 41 38 36 36 37 37 36 36 36 36 35 35 36 38 39
28 29 30 32 33 34 35 37 38 38 39 41 41 41 41 42 43 44 43 43 42 40 42 46 49 48 43 39 37 35 34 35 37 37 37 37 36 37 37 39 40 40
28 29 31 32 33 34 36 37 38 38 39 40 40 40 40 42 45 45 45 46 44 41 43 49 50 45 39 36 35 33 32 34 37 38 38 37 37 38 39 40 41 39
28 29 31 32 33 35 36 38 39 39 39 39 39 40 42 46 48 48 47 47 45 42 43 46 44 39 34 32 31 30 31 33 36 38 38 37 37 38 39 40 40 39
28 29 31 33 34 36 37 39 40 39 38 39 41 43 46 48 49 49 48 47 44 43 43 43 40 34 28 26 27 29 31 33 35 37 37 36 36 38 39 39 39 38
29 30 33 35 36 37 38 40 41 41 39 40 43 44 46 47 48 49 49 46 43 44 46 45 39 32 27 27 28 30 33 35 35 36 35 35 37 39 39 38 37 37
30 32 34 36 37 38 39 40 41 42 41 42 43 44 46 48 48 50 50 47 45 47 49 47 40 35 34 34 33 32 37 38 36 35 35 36 38 39 38 37 37 37
Wind_Direction
298 298 297 295 296 297 297 299 301 303 304 305 306 307 308 309 309 308 307 306 307 308 309 311 311 313 314 315 315 314 314 314 314 315 316 317 318 318 319 319 319 318
297 298 297 296 296 296 297 298 299 301 303 305 307 308 309 310 309 307 306 306 307 308 309 310 311 313 314 315 314 314 314 314 315 316 317 318 318 318 319 319 319 318
297 297 297 296 296 296 296 297 297 301 304 307 308 308 308 308 307 307 307 308 308 308 308 309 311 313 314 314 314 314 315 316 317 318 319 319 318 318 319 319 319 319
297 296 296 296 297 298 297 296 297 301 305 307 308 308 309 309 308 308 309 308 308 307 307 309 311 313 314 314 315 316 317 318 319 319 319 319 319 319 320 319 319 319
296 294 295 297 299 301 299 297 299 301 304 308 310 310 310 309 309 309 308 307 306 305 306 309 312 314 315 315 316 317 318 319 319 319 319 319 319 320 320 320 320 320
295 294 295 298 301 301 299 298 301 304 307 310 311 310 310 310 309 308 307 306 304 305 307 310 312 314 314 315 316 317 318 319 319 319 319 319 319 320 320 320 320 320
293 294 296 297 299 298 297 299 303 308 309 309 310 312 311 310 309 308 306 305 306 307 308 310 311 312 313 315 317 318 319 319 320 319 319 319 320 321 321 321 320 320
294 295 294 294 296 296 296 300 305 309 310 310 312 313 311 309 308 307 306 306 307 308 308 309 310 313 316 318 319 319 319 320 320 320 320 320 320 321 321 320 320 320
294 292 291 294 295 294 297 301 304 308 311 311 312 311 309 307 306 305 305 305 306 307 308 310 312 316 319 319 319 319 320 321 321 320 320 320 321 321 321 320 320 320
292 291 293 295 293 291 296 299 302 306 309 309 309 308 307 305 304 303 303 303 304 306 309 311 315 318 319 319 320 321 321 321 320 320 320 320 321 321 320 319 319 320
291 293 294 294 291 291 297 300 301 305 306 306 307 306 304 301 300 300 300 302 305 307 310 312 316 319 320 320 321 321 321 321 320 320 319 319 319 319 319 319 319 319
292 294 294 292 290 294 298 300 302 304 304 305 305 303 301 299 299 300 301 303 306 308 310 313 317 320 321 322 322 321 320 319 319 318 318 317 317 317 318 318 318 318
293 294 293 289 290 295 297 298 301 303 302 302 301 300 300 300 301 302 304 305 307 308 311 315 318 320 321 321 320 319 319 318 317 317 316 315 315 315 316 317 318 318
290 291 290 287 289 293 294 295 299 300 299 299 299 299 301 302 304 306 307 308 309 310 313 316 318 319 319 319 319 318 318 317 316 315 314 313 313 313 315 317 318 317
285 287 287 287 290 290 291 295 297 297 297 297 298 300 302 304 307 309 310 310 310 312 315 317 317 317 317 318 317 317 317 315 314 313 312 311 311 313 315 317 318 317
281 284 285 287 289 290 292 295 295 294 295 297 298 300 302 306 310 314 314 313 313 314 315 315 315 315 316 315 315 316 316 315 314 313 311 311 311 312 315 317 317 316
279 282 285 287 288 290 292 293 292 294 295 296 298 300 303 309 315 316 315 315 314 314 313 313 312 312 312 312 313 314 315 315 314 313 311 310 310 310 313 316 316 315
278 281 284 286 287 289 290 291 292 294 296 298 299 302 307 314 317 316 315 316 315 313 312 311 309 309 309 309 310 313 315 315 314 312 310 309 307 306 307 312 315 314
278 280 282 285 286 288 289 291 293 295 298 300 301 305 312 317 316 314 314 314 313 311 311 310 308 307 306 305 308 311 314 315 314 310 308 308 306 302 302 308 313 313
278 279 281 283 285 287 289 291 294 297 300 302 305 310 316 317 317 317 317 318 317 315 314 313 312 310 305 302 305 309 312 313 313 308 306 308 306 300 298 303 309 311
277 278 280 282 284 287 290 293 296 299 302 304 309 314 317 318 320 322 322 322 320 317 317 318 316 313 307 300 301 306 309 311 310 305 302 305 306 301 298 301 305 307
275 277 280 283 286 289 292 295 297 301 304 307 311 315 317 318 319 320 320 319 316 313 317 319 316 312 307 299 298 304 308 308 307 302 299 301 304 302 299 300 302 304
276 280 283 287 289 291 294 297 299 303 307 308 309 311 314 317 319 318 318 318 315 312 317 320 316 310 306 300 299 305 309 307 304 300 298 299 301 301 299 299 301 303
282 285 288 290 291 294 296 298 300 303 306 305 303 307 312 317 319 319 319 321 316 311 315 320 315 309 305 300 300 306 310 309 305 300 297 297 298 299 299 299 300 301
288 290 291 292 293 295 297 299 301 302 302 300 299 303 310 315 317 316 318 321 316 309 313 317 311 304 300 294 295 306 315 314 309 303 298 296 297 298 298 299 300 301
290 290 291 291 292 295 296 297 299 300 300 298 297 301 307 312 314 314 314 316 314 310 314 316 308 299 297 291 292 309 321 318 310 303 298 296 295 296 297 298 299 300